This is the latest recevied weather packets stored in our database for station/object N9BLE. If no packets are shown the sender has not sent any weather packets the latest 10 day(s).
| Time | Temp. | Humidity | Pressure | Rain* | Wind** | Luminosity | Snow |
|---|---|---|---|---|---|---|---|
| 1778037539 | 10° C | 49% | 1014.3 hPa | 0 mm | - | 0 W/m² | - |
| 1778037236 | 10° C | 49% | 1014.1 hPa | 0 mm | - | 0 W/m² | - |
| 1778036934 | 10° C | 50% | 1014.2 hPa | 0 mm | - | 0 W/m² | - |
| 1778036631 | 10° C | 52% | 1014.1 hPa | 0 mm | - | 0 W/m² | - |
| 1778036328 | 10° C | 52% | 1013.9 hPa | 0 mm | - | 0 W/m² | - |
| 1778036024 | 10° C | 51% | 1013.9 hPa | 0 mm | - | 0 W/m² | - |
| 1778035722 | 9.44° C | 51% | 1013.6 hPa | 0 mm | - | 0 W/m² | - |
| 1778035418 | 9.44° C | 53% | 1013.8 hPa | 0 mm | - | 0 W/m² | - |
| 1778035115 | 9.44° C | 54% | 1013.7 hPa | 0 mm | - | 0 W/m² | - |
| 1778034811 | 9.44° C | 52% | 1013.9 hPa | 0 mm | - | 0 W/m² | - |
| 1778034508 | 9.44° C | 53% | 1013.8 hPa | 0 mm | - | 0 W/m² | - |
| 1778034206 | 10° C | 51% | 1013.9 hPa | 0 mm | - | 0 W/m² | - |
| 1778033904 | 10° C | 50% | 1013.8 hPa | 0 mm | - | 0 W/m² | - |
| 1778033601 | 10° C | 52% | 1013.8 hPa | 0 mm | - | 0 W/m² | - |
| 1778033297 | 10° C | 50% | 1013.6 hPa | 0 mm | - | 0 W/m² | - |
| 1778032995 | 10° C | 49% | 1013.5 hPa | 0 mm | - | 0 W/m² | - |
| 1778032693 | 10° C | 50% | 1013.5 hPa | 0 mm | - | 0 W/m² | - |
| 1778032390 | 10° C | 51% | 1013.3 hPa | 0 mm | - | 0 W/m² | - |
| 1778032086 | 10° C | 48% | 1013.4 hPa | 0 mm | - | 0 W/m² | - |
| 1778031783 | 10.56° C | 48% | 1013.2 hPa | 0 mm | - | 0 W/m² | - |
| 1778031480 | 10.56° C | 46% | 1013.1 hPa | 0 mm | - | 0 W/m² | - |
| 1778031177 | 10.56° C | 47% | 1013.2 hPa | 0 mm | - | 0 W/m² | - |
| 1778030874 | 10.56° C | 47% | 1013.1 hPa | 0 mm | - | 0 W/m² | - |
| 1778030571 | 10.56° C | 47% | 1012.9 hPa | 0 mm | - | 0 W/m² | - |
| 1778030268 | 10.56° C | 44% | 1013 hPa | 0 mm | - | 0 W/m² | - |
* Rain latest hour (hover to see other rain measurements)
** Current wind speed in m/s (hover to see current wind gust speed)